Regional Weather Roundup
Issued by NWS Charleston, SC

Current Version | Previous Version | Graphics & Text | Print | Product List | Glossary On
Versions: 1 2 3 4 5 6 7 8 9 10 11 12 13 14 15 16 17 18 19 20 21 22 23 24 25 26 27 28 29 30 31 32 33 34 35 36 37 38 39 40 41 42 43 44 45 46 47 48 49 50
000
ASUS42 KCHS 030327
RWRCHS

REGIONAL WEATHER ROUNDUP
NATIONAL WEATHER SERVICE CHARLESTON SC
1100 PM EDT WED SEP 02 2015

NOTE: "FAIR" INDICATES FEW OR NO CLOUDS BELOW 12,000 FEET WITH NO
SIGNIFICANT WEATHER AND/OR OBSTRUCTIONS TO VISIBILITY.

NOT ALL STATIONS ARE QUALITY CONTROLLED BY THE NATIONAL
WEATHER SERVICE. USE DATA WITH CAUTION...ESPECIALLY
DEWPOINT OBSERVATIONS.

SCZ027-030-031-034>040-042>050-030400-
...SOUTHEAST SOUTH CAROLINA...

CITY           SKY/WX    TMP DP  RH WIND       PRES   REMARKS
N CHARLESTON   PTCLDY    79  75  87 SW7       29.99S
WATERFRONT PRK   N/A     81  78  91 VRB3      29.98R
MOUNT PLEASANT FAIR      77  75  94 CALM      30.00S
JOHNS ISLAND   FAIR      79  77  94 CALM      29.99F
PINOPOLIS        N/A     82  77  83 SW7       29.93R HX  91
MONCKS CORNER  FAIR      77  73  88 SW3       30.00S
SUMMERVILLE    FAIR      77  77 100 CALM      30.01S
BEAUFORT MCAS  MOCLDY    76  74  93 CALM      30.00S
BEAUFORT ARPT  FAIR      75  75 100 CALM      29.99F
HILTON HEAD IS MOCLDY    75  75 100 SW3       30.01S
WALTERBORO     PTCLDY    77  73  88 SW3       30.00F
ALLENDALE      FAIR      75  73  94 CALM      29.99F

...SOUTHERN MIDLANDS AND PEE DEE...

CITY           SKY/WX    TMP DP  RH WIND       PRES   REMARKS
GEORGETOWN     NOT AVBL
KINGSTREE      NOT AVBL
ORANGEBURG     PTCLDY    77  72  84 CALM      30.01R
BARNWELL       FAIR      77  73  88 CALM      30.02S
AIKEN          FAIR      73  70  88 SW3       30.05S
MANNING        FAIR      77  72  83 CALM      30.00S
COLUMBIA       MOCLDY    80  71  74 SW6       30.00R
SUMTER         PTCLDY    79  73  80 SW7       29.98R
FLORENCE       PTCLDY    80  73  79 SW7       29.99R
MYRTLE BEACH   PTCLDY    79  72  78 W6        30.01R
N MYRTLE BEACH PTCLDY    78  71  79 SW5       29.98S

$$

GAZ063-065-086>088-099>101-113>116-118-119-134>141-150-030400-
...SOUTHEAST GEORGIA...

CITY           SKY/WX    TMP DP  RH WIND       PRES   REMARKS
SAVANNAH ARPT  CLOUDY    77  73  87 CALM      30.01S
HUNTER AAF     CLOUDY    76  76 100 CALM      29.98S
FORT STEWART   MOCLDY    75  72  88 VRB7      29.99R
STATESBORO     PTCLDY    74  32  21 CALM      30.00F
SYLVANIA       NOT AVBL
CLAXTON        NOT AVBL

...CSRA...CENTRAL AND FAR SOUTHEAST GEORGIA...

CITY           SKY/WX    TMP DP  RH WIND       PRES   REMARKS
THOMSON        PTCLDY    77  76  97 CALM      30.06S
AUGUSTA-BUSH   PTCLDY    75  74  96 SE5       30.00R
AUGUSTA-DANIEL PTCLDY    80  71  74 S5        30.02R
SWAINSBORO     FAIR      77  72  83 CALM      30.01F
VIDALIA        PTCLDY    73  72  94 CALM      30.01F
EASTMAN        MOCLDY    76  76 100 CALM      30.03F
HAZLEHURST     FAIR      75  75 100 CALM      29.99F
ALMA           CLOUDY    74  73  97 N5        30.00S
WAYCROSS       CLOUDY    77  77  99 N5        29.93R
JESUP          CLOUDY    77  77 100 CALM      30.00S
BAXLEY         CLOUDY    75  73  94 NE3       29.99F
BRUNSWICK      CLOUDY    73  73 100 E3        30.00S
SAINT SIMONS   CLOUDY    76  76 100 CALM      29.98F

$$

SCZ027-028-034-036>038-045-046-048>050-GAZ119-141-030400-
...LAKE AND SUPPLEMENTAL COASTAL OBSERVATIONS...

STATION/POSITION TIME  TEMP    WIND        PRES    WAVE   SWELL
                       AIR SEA DIR/SP/G            HT/PER HT/PER/DIR
                 (UTC) (F)     (DEG/KT/KT) (MB)    (FT/S) (FT/S/D)
UPR LAKE MARION  NOT AVBL
WINYAH BAY       0245   79     250/  4     1015.0R
LAKE MURRAY      0300   83     220/  9/ 12 1015.2R
ACE BASIN NERRS  NOT AVBL
FORT PULASKI     0300   78 83  350/  5/  6 1016.5R
SAPELO ISLAND    0300   76      60/  2     1016.0S

$$

ANZ835-935-AMZ111-154-330-350-352-354-370-450-454-472-030400-
...C-MAN AND BUOY OBSERVATIONS...

STATION/POSITION TIME  TEMP    WIND        PRES    WAVE   SWELL
                       AIR SEA DIR/SP/G            HT/PER HT/PER/DIR
                 (UTC) (F)     (DEG/KT/KT) (MB)    (FT/S) (FT/S/D)
BUOY 41004       0250   82 84  230/  6/  8 1015.5S   2/ 7   2/ 7
BUOY 41008       0250   82 84  130/  8/ 10 1015.9R   2/ 9   2/ 90/ 9
FOLLY BEACH CMAN 0300   80     260/  3/  4 1015.8S
CAPERS NEARSHORE 0208   82     250/  8/ 12 1015.7R
FRIPP NEARSHORE  NOT AVBL


STATION/POSITION TIME  TEMP    WIND        PRES    WAVE   SWELL
                       AIR SEA DIR/SP/G            HT/PER HT/PER/DIR
                 (UTC) (F)     (DEG/KT/KT) (MB)    (FT/S) (FT/S/D)
5E ST. MARYS GA  0221      85                N/A     2/ 3
FRYING PAN BUOY  0250   82 81  230/ 12/ 12 1015.7S   2/ 7   2/120/ 7
BUOY 41025       0250   82 86  210/  2/  4 1014.8F   2/12   2/100/12
CAPE LOOKOUT NC  0300   80     230/  5/  6 1014.9R
BUOY 41002       0250   82 84   30/  4/  6 1015.3S   2/14   2/ 70/14
BUOY 41010       0220   84 87   10/  2/  4 1016.7R
ST AUGUSTINE FL  0300   79 83  200/  4/  5 1016.5F


$$


USA.gov is the U.S. government's official web portal to all federal, state and local government web resources and services.